| time (UTC) | temp F | wind direction | speed MPH | gust MPH | rain 1hr in | rain 24hr in | rain mn in | humidity % | barometer mb |
| 20260505041539 | 65 | 156 | 0.0 | 3.0 | 0.00 | 0.00 | 0.00 | 48 | 1009.8 |
| 20260505040039 | 65 | 156 | 0.0 | 5.0 | 0.00 | 0.00 | 0.00 | 48 | 1009.8 |
| 20260505034552 | 65 | 156 | 0.0 | 2.0 | 0.00 | 0.00 | 0.00 | 48 | 1009.9 |
| 20260505033039 | 65 | 156 | 0.0 | 1.0 | 0.00 | 0.00 | 0.00 | 48 | 1009.9 |
| 20260505031537 | 66 | 156 | 0.0 | 0.0 | 0.00 | 0.00 | 0.00 | 47 | 1010.0 |
| 20260505030046 | 65 | 156 | 0.0 | 3.0 | 0.00 | 0.00 | 0.00 | 47 | 1010.0 |
| 20260505024536 | 65 | 156 | 0.0 | 1.0 | 0.00 | 0.00 | 0.00 | 48 | 1010.0 |
| 20260505023043 | 65 | 156 | 0.0 | 0.0 | 0.00 | 0.00 | 0.00 | 48 | 1009.9 |
| 20260505021535 | 66 | 156 | 0.0 | 0.0 | 0.00 | 0.00 | 0.00 | 46 | 1010.0 |
| 20260505020040 | 67 | 156 | 0.0 | 0.0 | 0.00 | 0.00 | 0.00 | 42 | 1009.9 |
| 20260505014539 | 68 | 156 | 0.0 | 0.0 | 0.00 | 0.00 | 0.00 | 41 | 1009.8 |
| 20260505013039 | 69 | 156 | 0.0 | 0.0 | 0.00 | 0.00 | 0.00 | 40 | 1009.7 |
| 20260505011532 | 69 | 156 | 0.0 | 0.0 | 0.00 | 0.00 | 0.00 | 38 | 1009.6 |
| 20260505010032 | 70 | 156 | 0.0 | 1.0 | 0.00 | 0.00 | 0.00 | 36 | 1009.5 |
| 20260505004554 | 70 | 156 | 0.0 | 2.0 | 0.00 | 0.00 | 0.00 | 35 | 1009.2 |
| 20260505003030 | 71 | 156 | 0.0 | 2.0 | 0.00 | 0.00 | 0.00 | 35 | 1009.1 |
| 20260505001536 | 72 | 156 | 0.0 | 3.0 | 0.00 | 0.00 | 0.00 | 33 | 1009.2 |
| 20260505000033 | 72 | 156 | 0.0 | 3.0 | 0.00 | 0.00 | 0.00 | 32 | 1009.3 |
| 20260504234529 | 72 | 156 | 0.0 | 6.0 | 0.00 | 0.00 | 0.00 | 32 | 1009.2 |
| 20260504233029 | 73 | 157 | 0.0 | 3.0 | 0.00 | 0.00 | 0.00 | 31 | 1008.9 |
| 20260504231528 | 74 | 157 | 0.0 | 2.0 | 0.00 | 0.00 | 0.00 | 31 | 1008.9 |
| 20260504230027 | 74 | 160 | 1.0 | 6.0 | 0.00 | 0.00 | 0.00 | 30 | 1008.8 |
| 20260504224533 | 75 | 159 | 0.0 | 6.0 | 0.00 | 0.00 | 0.00 | 29 | 1008.8 |
| 20260504223027 | 75 | 159 | 0.0 | 7.0 | 0.00 | 0.00 | 0.00 | 29 | 1008.7 |
| 20260504221536 | 75 | 160 | 0.0 | 5.0 | 0.00 | 0.00 | 0.00 | 30 | 1008.9 |
| 20260504220025 | 76 | 156 | 0.0 | 10.0 | 0.00 | 0.00 | 0.00 | 29 | 1008.9 |
| 20260504214524 | 76 | 157 | 2.0 | 7.0 | 0.00 | 0.00 | 0.00 | 29 | 1008.9 |
| 20260504213036 | 76 | 156 | 0.0 | 7.0 | 0.00 | 0.00 | 0.00 | 28 | 1008.8 |
| 20260504211531 | 76 | 142 | 1.0 | 5.0 | 0.00 | 0.00 | 0.00 | 28 | 1008.9 |
| 20260504210023 | 76 | 182 | 0.0 | 3.0 | 0.00 | 0.00 | 0.00 | 27 | 1009.0 |
| 20260504204521 | 75 | 182 | 0.0 | 11.0 | 0.00 | 0.00 | 0.00 | 28 | 1009.1 |
| 20260504203022 | 75 | 166 | 0.0 | 8.0 | 0.00 | 0.00 | 0.00 | 27 | 1008.9 |
| 20260504201517 | 75 | 157 | 1.0 | 7.0 | 0.00 | 0.00 | 0.00 | 27 | 1009.3 |
| 20260504200019 | 75 | 160 | 3.0 | 14.0 | 0.00 | 0.00 | 0.00 | 28 | 1009.4 |
| 20260504194521 | 73 | 148 | 0.0 | 8.0 | 0.00 | 0.00 | 0.00 | 30 | 1009.7 |
| 20260504193017 | 75 | 168 | 2.0 | 9.0 | 0.00 | 0.00 | 0.00 | 27 | 1009.7 |
| 20260504191513 | 76 | 157 | 0.0 | 6.0 | 0.00 | 0.00 | 0.00 | 28 | 1009.8 |
| 20260504190018 | 75 | 169 | 0.0 | 9.0 | 0.00 | 0.00 | 0.00 | 28 | 1010.0 |
| 20260504184526 | 75 | 156 | 0.0 | 3.0 | 0.00 | 0.00 | 0.00 | 26 | 1010.2 |
| 20260504183007 | 76 | 180 | 0.0 | 6.0 | 0.00 | 0.00 | 0.00 | 26 | 1010.6 |
| 20260504181505 | 75 | 162 | 0.0 | 6.0 | 0.00 | 0.00 | 0.00 | 26 | 1010.8 |
| 20260504180004 | 75 | 164 | 0.0 | 7.0 | 0.00 | 0.00 | 0.00 | 26 | 1011.0 |
| 20260504174503 | 74 | 157 | 0.0 | 9.0 | 0.00 | 0.00 | 0.00 | 26 | 1011.1 |
| 20260504173002 | 74 | 157 | 0.0 | 3.0 | 0.00 | 0.00 | 0.00 | 27 | 1011.2 |
| 20260504171601 | 73 | 155 | 0.0 | 3.0 | 0.00 | 0.00 | 0.00 | 27 | 1011.6 |
| 20260504081527 | 48 | 43 | 0.0 | 1.0 | 0.00 | 0.00 | 0.00 | 62 | 1014.6 |